QPF
0.00 0.00 0.00 0.00 0.00 0.00 0.00 0.00 0.00 0.00 0.00 0.00 0.00 0.00 0.00 0.00 0.00 0.00 0.00 0.00 0.00 0.00 0.00 0.00 0.00 0.01 0.00 0.00 0.00 0.00 0.00 0.02 0.00 0.00 0.00 0.00 0.00 0.00 0.00 0.00 0.00 0.00 0.00 0.00 0.00 0.00 0.00 0.00 0.00
0.00 0.01 0.00 0.00 0.00 0.00 0.00 0.00 0.00 0.02 0.01 0.00 0.00 0.01 0.00 0.01 0.00 0.00 0.00 0.00 0.00 0.00 0.00 0.00 0.00 0.00 0.00 0.00 0.00 0.00 0.00 0.00 0.00 0.00 0.00 0.00 0.00 0.00 0.00 0.00 0.00 0.00 0.00 0.00 0.00 0.00 0.00 0.00 0.00
0.03 0.09 0.01 0.00 0.00 0.00 0.00 0.00 0.00 0.00 0.00 0.00 0.00 0.01 0.02 0.00 0.00 0.00 0.00 0.00 0.00 0.00 0.00 0.00 0.00 0.01 0.00 0.00 0.00 0.00 0.00 0.00 0.00 0.00 0.00 0.00 0.00 0.00 0.00 0.00 0.00 0.00 0.00 0.00 0.00 0.00 0.00 0.00 0.00
0.08 0.15 0.04 0.00 0.00 0.00 0.00 0.00 0.00 0.00 0.01 0.00 0.00 0.02 0.06 0.03 0.01 0.00 0.00 0.00 0.00 0.00 0.00 0.00 0.01 0.00 0.00 0.00 0.00 0.00 0.00 0.00 0.00 0.00 0.00 0.00 0.00 0.00 0.00 0.00 0.00 0.00 0.00 0.00 0.00 0.00 0.00 0.00 0.00
0.14 0.11 0.01 0.00 0.00 0.00 0.00 0.00 0.00 0.00 0.00 0.00 0.00 0.04 0.16 0.09 0.03 0.03 0.00 0.00 0.00 0.00 0.00 0.01 0.01 0.01 0.00 0.00 0.00 0.00 0.00 0.00 0.01 0.01 0.00 0.00 0.00 0.00 0.00 0.00 0.00 0.00 0.00 0.00 0.00 0.00 0.00 0.00 0.00
0.15 0.07 0.01 0.00 0.00 0.00 0.00 0.00 0.00 0.00 0.00 0.00 0.00 0.01 0.25 0.30 0.14 0.06 0.00 0.00 0.00 0.00 0.00 0.01 0.01 0.00 0.00 0.00 0.00 0.00 0.00 0.00 0.01 0.01 0.00 0.00 0.00 0.00 0.00 0.00 0.00 0.00 0.00 0.00 0.00 0.00 0.00 0.00 0.00
0.07 0.06 0.02 0.00 0.00 0.00 0.00 0.00 0.00 0.00 0.00 0.00 0.00 0.00 0.14 0.25 0.22 0.10 0.06 0.05 0.00 0.00 0.00 0.01 0.00 0.00 0.00 0.00 0.00 0.00 0.00 0.00 0.01 0.01 0.00 0.00 0.00 0.00 0.00 0.00 0.00 0.00 0.00 0.00 0.00 0.00 0.00 0.00 0.00
0.06 0.07 0.00 0.00 0.00 0.00 0.00 0.00 0.00 0.00 0.00 0.00 0.00 0.00 0.04 0.06 0.09 0.11 0.22 0.13 0.03 0.00 0.00 0.00 0.00 0.00 0.00 0.00 0.00 0.00 0.00 0.00 0.00 0.00 0.00 0.00 0.00 0.00 0.00 0.00 0.00 0.00 0.00 0.00 0.00 0.00 0.00 0.00 0.00
0.09 0.15 0.02 0.00 0.00 0.00 0.00 0.00 0.00 0.00 0.00 0.00 0.00 0.00 0.00 0.01 0.05 0.09 0.23 0.21 0.07 0.02 0.00 0.00 0.00 0.00 0.00 0.00 0.00 0.00 0.00 0.00 0.00 0.00 0.00 0.00 0.00 0.00 0.00 0.00 0.00 0.00 0.00 0.00 0.00 0.00 0.00 0.00 0.00
0.13 0.23 0.04 0.00 0.00 0.00 0.00 0.00 0.00 0.00 0.00 0.01 0.00 0.00 0.00 0.01 0.03 0.16 0.23 0.23 0.19 0.03 0.01 0.00 0.00 0.00 0.00 0.00 0.00 0.00 0.00 0.00 0.00 0.00 0.00 0.00 0.00 0.00 0.00 0.00 0.00 0.00 0.00 0.00 0.00 0.00 0.00 0.00 0.00
0.11 0.17 0.03 0.00 0.00 0.00 0.00 0.00 0.00 0.00 0.00 0.00 0.00 0.00 0.00 0.00 0.00 0.02 0.21 0.33 0.34 0.27 0.07 0.00 0.00 0.00 0.00 0.00 0.00 0.00 0.00 0.00 0.00 0.00 0.00 0.00 0.00 0.00 0.00 0.00 0.00 0.00 0.00 0.00 0.00 0.00 0.00 0.00 0.00
0.05 0.05 0.06 0.02 0.02 0.02 0.00 0.00 0.00 0.00 0.00 0.00 0.00 0.00 0.00 0.00 0.00 0.01 0.01 0.15 0.34 0.39 0.23 0.07 0.00 0.01 0.00 0.00 0.00 0.00 0.00 0.00 0.00 0.00 0.00 0.00 0.00 0.00 0.00 0.00 0.00 0.00 0.00 0.00 0.00 0.00 0.00 0.00 0.00
0.06 0.03 0.06 0.04 0.06 0.03 0.00 0.00 0.00 0.00 0.00 0.00 0.00 0.00 0.03 0.04 0.00 0.01 0.02 0.03 0.09 0.30 0.33 0.17 0.06 0.00 0.00 0.00 0.01 0.00 0.00 0.00 0.00 0.00 0.00 0.00 0.00 0.00 0.00 0.00 0.00 0.00 0.00 0.00 0.00 0.00 0.00 0.00 0.00
0.12 0.04 0.10 0.08 0.08 0.05 0.01 0.00 0.00 0.00 0.00 0.00 0.00 0.00 0.08 0.10 0.04 0.01 0.03 0.01 0.02 0.09 0.19 0.19 0.11 0.06 0.01 0.00 0.01 0.00 0.00 0.00 0.00 0.00 0.00 0.00 0.00 0.00 0.00 0.00 0.00 0.00 0.00 0.00 0.00 0.00 0.00 0.00 0.00
0.13 0.05 0.21 0.19 0.16 0.15 0.03 0.01 0.01 0.00 0.00 0.00 0.00 0.00 0.02 0.07 0.07 0.04 0.02 0.03 0.04 0.10 0.13 0.12 0.10 0.13 0.09 0.02 0.00 0.00 0.00 0.00 0.00 0.00 0.00 0.00 0.00 0.00 0.00 0.00 0.00 0.00 0.00 0.00 0.00 0.00 0.00 0.00 0.00
0.11 0.14 0.20 0.35 0.19 0.29 0.15 0.02 0.01 0.00 0.00 0.00 0.00 0.00 0.00 0.00 0.05 0.04 0.03 0.05 0.10 0.12 0.10 0.05 0.02 0.02 0.04 0.02 0.00 0.01 0.01 0.00 0.00 0.00 0.00 0.00 0.00 0.00 0.00 0.00 0.00 0.00 0.00 0.00 0.00 0.00 0.00 0.00 0.00
0.17 0.21 0.20 0.31 0.17 0.28 0.31 0.09 0.01 0.00 0.00 0.00 0.00 0.00 0.00 0.00 0.00 0.00 0.01 0.03 0.02 0.06 0.09 0.06 0.08 0.06 0.03 0.00 0.00 0.01 0.02 0.01 0.00 0.00 0.00 0.00 0.00 0.00 0.00 0.00 0.00 0.00 0.00 0.00 0.00 0.00 0.00 0.00 0.00
0.04 0.10 0.14 0.18 0.14 0.26 0.18 0.11 0.01 0.00 0.00 0.00 0.00 0.00 0.00 0.00 0.00 0.00 0.00 0.01 0.05 0.06 0.13 0.18 0.08 0.04 0.03 0.02 0.00 0.00 0.02 0.02 0.01 0.01 0.00 0.00 0.00 0.00 0.00 0.00 0.00 0.00 0.00 0.00 0.00 0.00 0.00 0.00 0.00
0.00 0.01 0.03 0.05 0.07 0.11 0.11 0.03 0.02 0.00 0.00 0.00 0.00 0.00 0.00 0.00 0.00 0.00 0.00 0.00 0.03 0.06 0.11 0.14 0.12 0.07 0.01 0.00 0.00 0.00 0.00 0.00 0.00 0.00 0.00 0.00 0.00 0.00 0.00 0.00 0.00 0.00 0.00 0.00 0.00 0.00 0.00 0.00 0.00
0.00 0.00 0.00 0.02 0.01 0.05 0.07 0.01 0.00 0.00 0.00 0.00 0.00 0.00 0.00 0.00 0.00 0.00 0.00 0.00 0.00 0.04 0.03 0.08 0.07 0.13 0.01 0.00 0.00 0.00 0.00 0.00 0.00 0.00 0.00 0.00 0.00 0.00 0.00 0.00 0.01 0.00 0.00 0.00 0.00 0.00 0.00 0.00 0.00
0.01 0.00 0.00 0.00 0.00 0.02 0.05 0.05 0.00 0.00 0.00 0.00 0.00 0.00 0.00 0.00 0.00 0.00 0.00 0.00 0.00 0.00 0.00 0.00 0.00 0.02 0.05 0.09 0.14 0.03 0.00 0.00 0.00 0.00 0.00 0.00 0.00 0.01 0.01 0.00 0.00 0.00 0.00 0.00 0.00 0.00 0.00 0.00 0.00
0.00 0.00 0.00 0.01 0.03 0.05 0.02 0.00 0.00 0.00 0.00 0.00 0.00 0.00 0.00 0.00 0.00 0.00 0.00 0.00 0.00 0.00 0.00 0.01 0.03 0.05 0.13 0.13 0.23 0.23 0.24 0.23 0.19 0.16 0.05 0.01 0.03 0.03 0.02 0.00 0.00 0.00 0.00 0.00 0.00 0.00 0.00 0.00 0.00
0.00 0.00 0.03 0.03 0.05 0.04 0.02 0.00 0.00 0.00 0.00 0.00 0.00 0.00 0.00 0.00 0.00 0.00 0.00 0.00 0.00 0.00 0.00 0.02 0.10 0.09 0.05 0.10 0.13 0.19 0.12 0.10 0.13 0.14 0.20 0.19 0.19 0.14 0.09 0.05 0.01 0.00 0.00 0.00 0.00 0.00 0.00 0.00 0.00
0.00 0.00 0.02 0.04 0.04 0.02 0.00 0.00 0.00 0.00 0.00 0.00 0.00 0.00 0.00 0.00 0.00 0.00 0.00 0.00 0.00 0.00 0.00 0.00 0.05 0.07 0.04 0.07 0.09 0.13 0.11 0.10 0.08 0.11 0.13 0.10 0.07 0.05 0.04 0.02 0.00 0.00 0.00 0.00 0.00 0.00 0.00 0.00 0.00
0.00 0.00 0.14 0.13 0.10 0.01 0.00 0.00 0.00 0.00 0.00 0.00 0.00 0.00 0.00 0.00 0.00 0.00 0.00 0.00 0.00 0.00 0.00 0.00 0.00 0.02 0.03 0.08 0.08 0.08 0.08 0.04 0.05 0.05 0.04 0.02 0.01 0.01 0.00 0.00 0.00 0.00 0.00 0.00 0.00 0.00 0.00 0.00 0.00
0.00 0.00 0.05 0.04 0.01 0.00 0.00 0.00 0.00 0.00 0.00 0.00 0.00 0.00 0.00 0.00 0.00 0.00 0.00 0.00 0.00 0.00 0.00 0.00 0.00 0.00 0.00 0.02 0.03 0.12 0.09 0.05 0.03 0.03 0.01 0.01 0.00 0.00 0.00 0.00 0.00 0.00 0.00 0.00 0.00 0.00 0.00 0.00 0.00
0.00 0.00 0.00 0.00 0.00 0.00 0.00 0.00 0.00 0.00 0.00 0.00 0.00 0.00 0.00 0.00 0.00 0.00 0.00 0.00 0.00 0.00 0.00 0.00 0.00 0.00 0.00 0.00 0.00 0.00 0.02 0.03 0.01 0.00 0.00 0.00 0.00 0.00 0.00 0.00 0.00 0.00 0.00 0.00 0.00 0.00 0.00 0.00 0.00
0.00 0.00 0.00 0.00 0.00 0.00 0.00 0.00 0.00 0.00 0.00 0.00 0.00 0.00 0.00 0.00 0.00 0.00 0.00 0.00 0.00 0.00 0.00 0.00 0.00 0.00 0.00 0.00 0.00 0.00 0.00 0.00 0.00 0.00 0.00 0.00 0.00 0.00 0.00 0.00 0.00 0.00 0.00 0.00 0.00 0.00 0.00 0.00 0.00
0.00 0.00 0.00 0.00 0.00 0.00 0.00 0.00 0.00 0.00 0.00 0.00 0.00 0.00 0.00 0.00 0.00 0.00 0.00 0.00 0.00 0.00 0.00 0.00 0.00 0.00 0.00 0.00 0.00 0.00 0.00 0.00 0.00 0.00 0.00 0.00 0.00 0.00 0.00 0.00 0.00 0.00 0.00 0.00 0.00 0.00 0.00 0.00 0.00
0.00 0.00 0.00 0.00 0.00 0.00 0.00 0.00 0.00 0.00 0.00 0.00 0.00 0.00 0.00 0.00 0.00 0.00 0.00 0.00 0.00 0.00 0.00 0.00 0.00 0.00 0.00 0.00 0.00 0.00 0.00 0.00 0.00 0.00 0.00 0.00 0.00 0.00 0.00 0.00 0.00 0.00 0.00 0.00 0.00 0.00 0.00 0.00 0.00
MSLP
1014.65 1014.64 1014.79 1015.15 1015.97 1016.41 1014.69 1013.25 1011.85 1011.59 1011.38 1010.93 1010.68 1010.88 1011.43 1011.65 1012.25 1013.33 1012.77 1012.91 1013.42 1014.00 1014.42 1014.64 1014.94 1015.43 1015.78 1016.12 1016.42 1016.77 1016.95 1017.08 1017.25 1017.39 1017.51 1017.61 1017.66 1017.78 1017.84 1017.95 1018.25 1018.40 1018.63 1018.77 1018.90 1019.02 1019.14 1019.33 1019.39
1014.77 1014.62 1014.98 1015.15 1015.29 1015.29 1014.16 1012.73 1011.78 1011.50 1011.80 1011.18 1011.25 1011.33 1011.68 1012.63 1012.68 1012.88 1013.37 1013.47 1013.35 1013.93 1014.49 1014.86 1015.11 1015.53 1015.98 1016.33 1016.56 1016.84 1017.12 1017.25 1017.43 1017.61 1017.77 1017.80 1017.90 1018.06 1018.22 1018.26 1018.49 1018.86 1019.04 1019.17 1019.24 1019.45 1019.49 1019.62 1019.67
1014.93 1014.94 1015.41 1015.25 1014.83 1013.93 1013.23 1012.29 1011.40 1010.99 1011.10 1011.76 1011.73 1011.81 1012.22 1012.44 1012.85 1013.03 1013.15 1013.69 1013.71 1014.19 1014.49 1014.92 1015.24 1015.64 1016.11 1016.48 1016.72 1016.87 1017.09 1017.35 1017.47 1017.77 1018.01 1018.11 1018.24 1018.37 1018.54 1018.66 1018.96 1019.16 1019.37 1019.48 1019.58 1019.72 1019.81 1019.86 1019.89
1015.05 1015.66 1015.85 1015.01 1014.13 1012.62 1011.94 1011.31 1010.83 1011.65 1012.36 1012.05 1011.83 1012.07 1012.33 1013.58 1013.05 1012.91 1013.50 1013.89 1014.19 1014.65 1014.74 1015.05 1015.41 1015.82 1016.27 1016.65 1016.87 1017.03 1017.13 1017.41 1017.69 1017.87 1018.14 1018.41 1018.58 1018.77 1018.84 1018.97 1019.21 1019.37 1019.58 1019.68 1019.82 1019.94 1020.06 1020.14 1020.09
1015.14 1015.70 1015.53 1014.95 1013.65 1012.40 1011.31 1010.70 1010.85 1011.98 1011.92 1012.55 1012.12 1012.60 1013.19 1013.28 1012.55 1013.02 1013.64 1014.03 1014.46 1014.88 1014.93 1015.28 1015.65 1015.98 1016.44 1016.78 1017.02 1017.26 1017.41 1017.50 1017.80 1018.09 1018.33 1018.57 1018.82 1019.05 1019.28 1019.37 1019.47 1019.53 1019.71 1019.82 1019.97 1020.07 1020.16 1020.24 1020.26
1015.29 1015.36 1015.25 1014.40 1012.87 1012.01 1011.07 1010.68 1010.78 1010.41 1010.99 1011.49 1011.75 1012.75 1014.13 1014.30 1014.07 1013.76 1013.77 1013.98 1014.46 1014.96 1015.04 1015.46 1015.84 1016.14 1016.53 1016.90 1017.18 1017.46 1017.57 1017.69 1017.88 1018.14 1018.46 1018.70 1018.96 1019.22 1019.46 1019.58 1019.72 1019.82 1019.91 1020.04 1020.19 1020.30 1020.36 1020.35 1020.39
1014.50 1014.95 1014.31 1013.70 1012.88 1011.76 1010.75 1010.34 1010.92 1010.62 1010.44 1011.15 1010.98 1011.88 1014.02 1013.76 1014.12 1013.69 1013.93 1014.11 1014.71 1015.13 1015.34 1015.69 1016.06 1016.41 1016.70 1017.14 1017.20 1017.58 1017.73 1017.82 1017.99 1018.20 1018.50 1018.82 1019.11 1019.35 1019.41 1019.63 1019.69 1019.86 1020.00 1020.17 1020.31 1020.41 1020.47 1020.47 1020.50
1014.30 1014.83 1014.37 1013.37 1012.58 1011.65 1010.08 1010.34 1010.66 1010.72 1010.52 1010.98 1011.23 1012.07 1013.28 1013.38 1013.69 1014.37 1014.36 1014.68 1014.90 1015.42 1015.65 1016.05 1016.39 1016.69 1017.02 1017.42 1017.37 1017.53 1017.84 1017.97 1018.13 1018.39 1018.62 1018.87 1019.28 1019.52 1019.79 1019.83 1019.91 1019.92 1020.07 1020.19 1020.27 1020.39 1020.48 1020.58 1020.61
1014.35 1014.48 1013.67 1012.62 1012.20 1011.23 1010.51 1010.53 1010.64 1010.56 1011.01 1011.10 1011.44 1011.55 1011.42 1012.36 1014.46 1014.81 1015.19 1015.25 1015.56 1015.76 1015.77 1016.01 1016.57 1016.96 1017.24 1017.51 1017.79 1017.59 1017.82 1018.06 1018.27 1018.60 1018.82 1019.08 1019.29 1019.60 1019.91 1020.10 1020.18 1020.31 1020.31 1020.43 1020.39 1020.36 1020.47 1020.53 1020.56
1013.75 1013.41 1013.42 1012.32 1011.31 1010.96 1010.74 1010.46 1010.69 1011.15 1011.83 1011.77 1011.73 1012.16 1012.36 1013.12 1013.77 1014.01 1015.14 1016.17 1015.76 1015.90 1015.99 1016.22 1016.48 1017.01 1017.31 1017.54 1017.93 1018.07 1017.88 1018.16 1018.45 1018.74 1019.06 1019.26 1019.46 1019.65 1019.81 1020.13 1020.10 1020.26 1020.33 1020.46 1020.46 1020.59 1020.59 1020.56 1020.73
1012.84 1012.64 1012.78 1012.40 1011.57 1011.17 1010.85 1011.11 1010.90 1011.40 1012.34 1011.89 1011.58 1011.85 1012.47 1013.23 1013.39 1012.85 1013.33 1015.74 1016.14 1015.81 1016.01 1016.13 1016.38 1016.82 1017.25 1017.55 1018.05 1018.22 1018.43 1018.38 1018.51 1018.71 1019.06 1019.24 1019.51 1019.72 1019.86 1020.09 1020.34 1020.40 1020.38 1020.50 1020.53 1020.52 1020.64 1020.71 1020.71
1012.26 1012.49 1012.66 1012.31 1011.95 1011.69 1011.53 1011.29 1011.56 1011.59 1011.92 1011.66 1011.96 1012.15 1012.05 1013.15 1013.12 1013.21 1013.50 1014.76 1016.18 1016.25 1016.13 1016.05 1016.01 1016.52 1017.14 1017.45 1017.83 1018.06 1018.33 1018.64 1018.81 1018.85 1018.98 1019.21 1019.51 1019.77 1019.97 1020.01 1020.22 1020.36 1020.42 1020.47 1020.56 1020.66 1020.64 1020.65 1020.62
1012.59 1012.23 1012.64 1012.76 1012.85 1012.49 1012.08 1011.85 1011.72 1012.12 1012.04 1012.12 1012.20 1012.38 1012.63 1013.08 1013.28 1013.05 1013.67 1014.31 1014.74 1016.21 1016.48 1016.05 1016.10 1016.07 1016.71 1017.32 1017.61 1017.85 1018.03 1018.27 1018.33 1018.67 1018.99 1019.06 1019.31 1019.67 1019.89 1019.88 1020.09 1020.22 1020.30 1020.40 1020.53 1020.61 1020.51 1020.53 1020.49
1012.14 1012.37 1012.80 1013.17 1013.66 1013.25 1012.70 1012.50 1012.03 1012.69 1012.31 1012.32 1012.19 1012.33 1012.64 1013.12 1013.30 1013.75 1013.35 1014.03 1014.35 1014.70 1015.83 1016.15 1015.83 1015.67 1016.37 1016.81 1017.04 1017.28 1017.65 1017.78 1018.11 1018.29 1018.55 1018.81 1018.94 1019.26 1019.58 1019.68 1019.84 1020.02 1020.10 1020.17 1020.35 1020.41 1020.51 1020.43 1020.36
1013.11 1013.23 1013.51 1014.14 1014.47 1013.87 1013.47 1013.39 1013.10 1012.64 1012.54 1012.49 1012.50 1012.57 1012.59 1012.91 1013.16 1013.34 1013.42 1013.66 1014.27 1015.11 1014.87 1015.72 1016.31 1016.10 1016.14 1016.41 1016.49 1016.75 1017.18 1017.37 1017.73 1017.89 1018.07 1018.37 1018.62 1018.84 1019.00 1019.33 1019.69 1019.67 1019.78 1019.86 1020.19 1020.24 1020.20 1020.18 1020.13
1013.06 1013.78 1014.40 1014.88 1014.27 1013.80 1014.35 1014.22 1013.48 1013.01 1012.96 1013.17 1013.07 1013.04 1012.97 1012.86 1012.87 1013.24 1013.67 1013.59 1013.90 1014.04 1014.60 1015.39 1015.45 1015.75 1015.92 1015.81 1016.11 1016.32 1016.71 1016.92 1017.08 1017.44 1017.75 1017.97 1018.16 1018.47 1018.83 1019.11 1019.34 1019.38 1019.54 1019.65 1019.77 1019.96 1020.09 1020.08 1020.02
1014.00 1014.20 1014.81 1015.71 1015.24 1014.73 1014.79 1014.75 1013.74 1013.39 1013.29 1013.49 1013.45 1013.44 1013.37 1013.31 1013.21 1013.07 1013.25 1013.42 1013.66 1013.99 1014.33 1014.19 1014.70 1015.50 1015.53 1015.49 1015.68 1015.93 1016.39 1016.51 1016.69 1017.01 1017.31 1017.55 1017.86 1018.12 1018.47 1018.83 1018.99 1019.08 1019.27 1019.44 1019.53 1019.77 1019.86 1019.86 1019.79
1013.47 1014.60 1015.43 1015.97 1016.02 1015.37 1015.66 1014.48 1013.86 1013.77 1013.58 1013.70 1013.68 1013.72 1013.66 1013.51 1013.30 1013.09 1013.01 1012.80 1013.36 1013.74 1014.08 1014.57 1014.79 1015.06 1015.23 1015.53 1015.77 1016.10 1016.25 1016.43 1016.47 1016.68 1016.93 1017.29 1017.49 1017.78 1018.22 1018.47 1018.60 1018.70 1018.99 1019.16 1019.29 1019.48 1019.59 1019.63 1019.69
1013.28 1014.28 1014.79 1015.62 1015.43 1015.76 1015.99 1015.06 1014.64 1013.93 1013.79 1013.96 1014.14 1013.87 1013.75 1013.63 1012.96 1012.98 1012.89 1012.87 1013.05 1013.65 1014.18 1014.25 1014.70 1014.56 1015.07 1015.50 1016.07 1016.35 1016.43 1016.45 1016.59 1016.49 1016.54 1016.89 1017.05 1017.41 1017.82 1018.17 1018.30 1018.47 1018.72 1018.82 1019.03 1019.27 1019.42 1019.40 1019.43
1012.74 1013.40 1014.33 1014.96 1015.18 1015.90 1015.76 1014.96 1014.44 1014.07 1013.74 1013.74 1014.04 1013.98 1013.75 1013.49 1013.30 1012.96 1013.17 1013.28 1013.26 1013.24 1013.71 1014.17 1014.41 1014.72 1014.72 1014.91 1015.44 1015.82 1016.35 1016.48 1016.31 1016.27 1016.30 1016.38 1016.71 1017.05 1017.43 1017.70 1018.07 1018.19 1018.51 1018.72 1018.98 1019.12 1019.42 1019.49 1019.40
1013.28 1013.29 1013.69 1014.38 1015.00 1015.61 1015.97 1016.01 1014.88 1014.13 1013.66 1013.52 1013.56 1013.65 1013.57 1013.32 1013.06 1013.05 1012.92 1013.22 1013.15 1013.39 1013.29 1013.40 1013.40 1013.92 1014.14 1014.76 1015.55 1015.89 1016.18 1016.44 1016.61 1016.47 1016.55 1016.57 1016.85 1016.99 1017.39 1017.72 1017.92 1018.16 1018.49 1018.78 1019.03 1019.26 1019.42 1019.61 1019.66
1013.17 1013.11 1013.33 1013.89 1014.61 1015.21 1015.30 1015.31 1014.67 1013.91 1013.65 1013.73 1013.55 1013.45 1013.38 1013.32 1012.89 1012.79 1012.78 1013.02 1013.30 1013.03 1013.13 1013.23 1013.35 1013.59 1014.14 1014.53 1015.35 1015.42 1015.59 1016.17 1016.40 1016.53 1016.70 1017.06 1017.44 1017.69 1017.68 1017.97 1018.11 1018.34 1018.70 1019.10 1019.27 1019.34 1019.55 1019.85 1019.83
1012.95 1013.12 1013.57 1014.15 1015.08 1015.35 1015.72 1016.15 1014.46 1013.81 1013.73 1013.29 1012.96 1013.29 1013.27 1013.08 1012.76 1012.80 1012.70 1012.71 1012.67 1013.01 1013.23 1013.70 1013.97 1014.12 1014.20 1014.44 1014.67 1014.85 1015.35 1015.81 1016.43 1016.93 1017.05 1017.42 1017.68 1018.24 1018.37 1018.37 1018.30 1018.74 1018.94 1019.14 1019.21 1019.34 1019.48 1019.64 1019.82
1013.04 1013.90 1014.85 1015.61 1016.07 1016.21 1016.00 1016.27 1014.64 1014.12 1013.39 1013.19 1013.06 1013.04 1013.00 1012.83 1012.77 1012.83 1012.56 1012.72 1013.06 1013.32 1013.33 1013.93 1014.45 1014.48 1014.23 1014.23 1014.52 1014.74 1015.24 1015.82 1016.69 1017.01 1017.41 1017.43 1017.14 1017.96 1018.22 1018.61 1018.60 1018.76 1018.96 1019.30 1019.31 1019.40 1019.42 1019.53 1019.57
1013.91 1014.24 1016.20 1016.76 1016.89 1016.50 1016.11 1016.46 1014.78 1013.63 1013.21 1012.90 1013.00 1013.19 1013.08 1012.92 1012.89 1012.90 1013.08 1013.13 1013.32 1013.51 1013.45 1013.92 1014.49 1014.56 1014.66 1014.52 1014.61 1014.61 1015.34 1015.56 1016.06 1016.63 1017.59 1017.54 1017.33 1017.97 1018.28 1018.15 1018.48 1018.79 1018.68 1019.28 1019.27 1019.54 1019.34 1019.29 1019.41
1014.19 1014.43 1015.77 1016.43 1016.88 1016.70 1016.45 1015.96 1014.68 1014.21 1013.72 1013.41 1013.40 1013.55 1013.64 1013.78 1013.52 1013.44 1013.32 1013.36 1013.53 1013.59 1013.69 1013.98 1014.36 1014.68 1014.87 1015.09 1015.16 1015.34 1015.31 1015.50 1015.99 1016.76 1017.29 1017.52 1017.92 1018.06 1018.51 1018.45 1018.52 1018.88 1018.21 1019.53 1019.20 1019.50 1019.30 1019.20 1019.09
1014.10 1014.47 1014.70 1016.13 1016.78 1016.37 1016.56 1015.63 1014.89 1014.42 1014.20 1014.14 1014.22 1014.24 1014.35 1014.25 1014.15 1014.01 1013.85 1013.79 1013.80 1014.02 1014.32 1014.61 1014.86 1015.15 1015.25 1015.17 1015.28 1015.49 1015.77 1015.98 1016.05 1016.47 1016.71 1017.27 1017.81 1018.16 1018.37 1018.47 1018.68 1018.47 1018.43 1018.84 1019.12 1019.24 1019.29 1019.10 1018.99
1013.49 1014.15 1015.05 1015.67 1016.93 1017.18 1016.71 1015.66 1015.02 1014.77 1014.77 1014.79 1014.88 1014.92 1015.01 1014.95 1014.68 1014.48 1014.20 1014.06 1014.16 1014.33 1014.66 1014.96 1015.18 1015.30 1015.26 1015.41 1015.70 1015.89 1016.19 1016.30 1016.53 1015.87 1016.19 1016.84 1017.50 1017.81 1018.33 1018.55 1018.75 1018.71 1018.86 1019.00 1019.02 1018.89 1018.86 1018.72 1019.06
1014.23 1014.30 1015.01 1015.77 1016.83 1016.94 1016.89 1015.86 1014.76 1014.87 1015.08 1015.15 1015.29 1015.34 1015.29 1015.21 1015.14 1015.05 1015.01 1014.75 1014.76 1014.79 1015.17 1015.32 1015.33 1015.44 1015.57 1015.64 1015.81 1016.06 1016.36 1016.49 1016.90 1016.96 1017.09 1017.25 1017.83 1018.22 1018.62 1018.08 1018.71 1019.07 1019.14 1019.07 1019.05 1018.92 1018.76 1018.54 1018.88
1014.86 1014.85 1015.25 1016.06 1017.22 1017.51 1017.36 1016.37 1015.10 1015.25 1015.69 1016.08 1016.29 1016.11 1015.87 1015.71 1015.71 1015.47 1015.38 1015.56 1015.65 1015.44 1015.29 1015.32 1015.51 1015.71 1015.64 1015.65 1015.70 1015.96 1016.41 1016.55 1016.95 1017.35 1017.81 1017.90 1018.19 1018.52 1018.42 1018.28 1018.99 1019.34 1019.25 1019.04 1019.13 1019.02 1018.79 1018.55 1018.89
Thickness
5637 5643 5650 5648 5630 5618 5636 5669 5697 5698 5704 5721 5732 5731 5725 5733 5733 5721 5755 5759 5758 5757 5754 5756 5755 5751 5750 5749 5748 5745 5745 5745 5745 5744 5744 5744 5743 5741 5740 5739 5735 5733 5731 5729 5727 5726 5724 5721 5719
5626 5634 5635 5631 5619 5611 5636 5673 5675 5693 5699 5712 5720 5725 5727 5716 5738 5741 5745 5753 5756 5754 5751 5750 5751 5749 5746 5745 5745 5744 5743 5743 5742 5741 5741 5741 5740 5739 5737 5736 5733 5729 5727 5725 5724 5721 5720 5717 5716
5616 5623 5616 5614 5614 5628 5644 5671 5689 5694 5702 5697 5708 5720 5720 5722 5734 5738 5747 5747 5749 5749 5749 5747 5747 5746 5743 5742 5742 5742 5741 5740 5740 5739 5737 5737 5737 5736 5734 5732 5729 5726 5723 5722 5720 5717 5716 5715 5713
5602 5605 5604 5599 5620 5656 5669 5681 5683 5672 5676 5695 5707 5703 5722 5720 5732 5741 5742 5742 5743 5743 5744 5743 5743 5742 5739 5738 5738 5739 5740 5738 5736 5736 5734 5732 5732 5730 5730 5729 5726 5724 5721 5719 5717 5715 5713 5711 5711
5593 5594 5591 5594 5623 5655 5670 5675 5669 5670 5676 5678 5698 5693 5705 5722 5735 5737 5736 5737 5736 5737 5740 5738 5738 5738 5736 5735 5735 5734 5735 5735 5733 5732 5731 5730 5729 5727 5725 5724 5723 5722 5720 5718 5716 5713 5711 5709 5708
5579 5589 5582 5592 5630 5652 5662 5673 5671 5681 5683 5687 5693 5694 5696 5705 5712 5725 5731 5732 5730 5732 5734 5733 5733 5734 5733 5732 5731 5730 5731 5731 5731 5730 5728 5727 5726 5724 5722 5721 5720 5718 5717 5715 5713 5710 5709 5708 5706
5578 5578 5588 5610 5622 5635 5653 5676 5665 5671 5677 5679 5698 5697 5692 5694 5706 5722 5723 5725 5722 5724 5727 5727 5727 5728 5729 5727 5730 5727 5727 5728 5727 5727 5726 5724 5722 5720 5720 5719 5719 5716 5714 5712 5710 5708 5706 5705 5704
5574 5579 5584 5600 5613 5627 5664 5672 5670 5672 5671 5689 5690 5678 5678 5698 5708 5705 5711 5714 5718 5717 5719 5719 5721 5722 5722 5721 5725 5725 5723 5724 5724 5723 5723 5723 5719 5717 5715 5715 5715 5714 5712 5710 5708 5706 5704 5703 5702
5577 5570 5580 5601 5610 5634 5656 5656 5667 5678 5672 5678 5686 5691 5708 5707 5696 5697 5696 5702 5705 5710 5716 5716 5714 5716 5716 5717 5716 5722 5721 5720 5721 5720 5719 5719 5718 5715 5712 5711 5711 5709 5709 5707 5706 5706 5703 5702 5701
5563 5573 5580 5609 5628 5636 5650 5657 5662 5664 5661 5667 5676 5684 5690 5693 5691 5695 5692 5687 5696 5702 5708 5711 5712 5710 5711 5711 5712 5713 5718 5717 5716 5715 5715 5714 5714 5713 5711 5707 5708 5707 5707 5705 5704 5702 5701 5701 5698
5573 5577 5589 5603 5622 5634 5644 5646 5657 5654 5650 5666 5675 5684 5689 5686 5689 5705 5705 5691 5691 5694 5701 5706 5709 5707 5706 5707 5707 5709 5709 5712 5712 5712 5710 5710 5709 5709 5709 5707 5704 5703 5704 5704 5701 5702 5699 5698 5697
5566 5581 5588 5602 5615 5622 5632 5643 5641 5653 5657 5671 5676 5682 5686 5681 5689 5693 5696 5689 5686 5687 5690 5699 5704 5704 5702 5703 5704 5706 5705 5705 5707 5708 5707 5707 5706 5705 5705 5705 5703 5701 5700 5701 5700 5698 5697 5695 5694
5566 5581 5585 5594 5603 5612 5624 5632 5638 5644 5657 5666 5672 5677 5677 5678 5682 5693 5693 5693 5691 5683 5685 5688 5693 5700 5699 5698 5702 5702 5702 5702 5704 5703 5703 5704 5704 5702 5701 5702 5701 5700 5698 5697 5695 5694 5694 5693 5692
5565 5581 5586 5587 5593 5601 5613 5622 5637 5635 5653 5658 5667 5671 5672 5671 5679 5680 5691 5688 5688 5690 5684 5688 5693 5695 5695 5695 5700 5701 5701 5701 5700 5701 5700 5700 5702 5701 5699 5699 5698 5697 5697 5695 5693 5692 5689 5690 5689
5557 5562 5571 5578 5584 5594 5603 5610 5616 5633 5646 5652 5659 5664 5669 5672 5672 5677 5684 5686 5685 5681 5691 5687 5685 5686 5690 5692 5696 5698 5699 5699 5699 5698 5699 5697 5697 5698 5699 5696 5693 5694 5693 5692 5689 5688 5688 5687 5686
5549 5554 5555 5557 5579 5587 5590 5596 5613 5627 5633 5640 5650 5658 5663 5670 5673 5671 5673 5680 5683 5683 5685 5685 5689 5689 5691 5692 5694 5695 5695 5698 5698 5698 5695 5695 5695 5694 5693 5692 5689 5689 5689 5688 5688 5686 5684 5683 5683
5536 5542 5555 5548 5565 5572 5582 5589 5607 5619 5627 5634 5642 5648 5654 5658 5665 5670 5676 5677 5679 5679 5683 5688 5692 5685 5689 5691 5693 5693 5693 5695 5697 5695 5693 5692 5692 5691 5690 5687 5686 5685 5685 5683 5683 5681 5681 5680 5680
5542 5535 5538 5542 5558 5569 5570 5577 5597 5609 5618 5623 5632 5638 5645 5651 5657 5664 5669 5677 5677 5676 5679 5679 5682 5682 5684 5687 5686 5687 5690 5690 5692 5693 5692 5690 5690 5688 5685 5683 5682 5682 5680 5679 5678 5678 5677 5676 5673
5550 5543 5546 5550 5561 5565 5567 5575 5585 5601 5611 5614 5620 5631 5640 5645 5655 5661 5666 5671 5674 5673 5670 5675 5674 5680 5679 5679 5678 5679 5681 5683 5685 5688 5689 5687 5686 5684 5682 5678 5677 5677 5676 5675 5675 5673 5671 5671 5669
5548 5544 5540 5546 5555 5556 5560 5571 5586 5597 5607 5614 5617 5624 5633 5642 5649 5658 5660 5663 5667 5671 5671 5669 5670 5671 5678 5680 5679 5679 5676 5676 5679 5682 5683 5684 5681 5679 5677 5675 5672 5670 5669 5668 5667 5666 5663 5662 5662
5541 5548 5551 5553 5559 5558 5558 5559 5577 5593 5605 5615 5621 5625 5634 5641 5648 5651 5654 5658 5661 5664 5669 5671 5674 5672 5675 5674 5670 5669 5670 5670 5669 5671 5672 5674 5673 5672 5669 5667 5665 5663 5661 5659 5658 5656 5654 5652 5651
5540 5554 5558 5559 5557 5554 5564 5558 5571 5595 5602 5609 5616 5622 5629 5634 5644 5649 5653 5654 5653 5660 5664 5667 5669 5669 5668 5667 5662 5665 5665 5660 5660 5661 5661 5660 5659 5657 5657 5656 5655 5654 5651 5649 5647 5647 5644 5641 5640
5547 5552 5552 5555 5548 5554 5557 5554 5573 5587 5593 5609 5619 5619 5624 5632 5639 5643 5646 5651 5652 5653 5654 5656 5655 5658 5660 5660 5662 5663 5659 5658 5655 5650 5650 5648 5646 5641 5639 5641 5643 5641 5640 5640 5639 5638 5636 5634 5632
5546 5538 5536 5541 5540 5543 5556 5553 5569 5581 5594 5603 5611 5618 5623 5630 5635 5638 5642 5644 5643 5642 5646 5646 5642 5645 5650 5652 5653 5654 5653 5648 5644 5643 5641 5640 5643 5638 5636 5631 5632 5632 5631 5630 5630 5628 5627 5625 5624
5541 5538 5522 5528 5533 5544 5553 5547 5564 5589 5598 5605 5608 5613 5619 5624 5629 5631 5631 5631 5633 5634 5637 5636 5633 5634 5636 5641 5643 5646 5642 5640 5639 5636 5629 5630 5633 5628 5625 5628 5625 5623 5625 5619 5617 5615 5617 5616 5615
5542 5542 5525 5533 5531 5544 5552 5548 5568 5583 5588 5593 5598 5602 5607 5609 5613 5618 5624 5624 5625 5627 5627 5626 5624 5623 5625 5628 5630 5631 5632 5631 5628 5624 5621 5621 5616 5615 5612 5613 5612 5609 5615 5604 5608 5606 5606 5607 5607
5543 5536 5550 5531 5529 5529 5544 5565 5575 5576 5582 5585 5589 5593 5596 5601 5604 5608 5611 5614 5616 5615 5615 5614 5613 5612 5615 5618 5619 5619 5618 5617 5618 5616 5615 5612 5607 5604 5603 5601 5600 5601 5602 5598 5596 5596 5595 5597 5597
5548 5551 5536 5528 5525 5543 5543 5558 5558 5571 5576 5581 5583 5585 5589 5592 5595 5599 5603 5606 5606 5605 5603 5602 5603 5604 5605 5606 5605 5605 5604 5605 5604 5611 5609 5604 5598 5595 5590 5589 5587 5588 5586 5585 5585 5586 5586 5588 5584
5537 5540 5541 5536 5531 5528 5535 5548 5567 5565 5567 5571 5576 5580 5582 5584 5585 5589 5589 5593 5592 5592 5589 5591 5593 5595 5595 5594 5594 5594 5593 5593 5590 5590 5589 5587 5582 5578 5575 5580 5575 5572 5571 5571 5572 5572 5575 5577 5573
5538 5542 5537 5508 5527 5511 5506 5539 5561 5560 5559 5558 5559 5563 5572 5573 5573 5576 5577 5576 5578 5581 5581 5582 5580 5581 5585 5586 5586 5585 5582 5581 5579 5575 5572 5571 5568 5565 5565 5567 5561 5558 5558 5558 5556 5558 5561 5563 5559